Location: Tel Aviv
(32.0670°N, 34.7670°E)
Time: 09:59:30
(UTC+02:00)

BlueWalker 3 - Visible Passes

Search period start: 06 December 2022 00:00
Search period end: 16 December 2022 00:00
Orbit: 501 x 518 km, 53.2° (Epoch: 05 December)

Date Brightness Start Highest point End Pass type
(mag) Time Alt. Az. Time Alt. Az. Time Alt. Az.
08 Dec 4.3 17:56:35 10° N 17:57:00 11° N 17:57:00 11° N visible
09 Dec 3.9 17:38:01 10° N 17:39:53 14° NNE 17:39:53 14° NNE visible
10 Dec 3.8 17:19:28 10° N 17:21:43 15° NNE 17:23:01 13° NE visible
10 Dec 4.4 18:56:52 10° NW 18:57:54 17° NW 18:57:54 17° NW visible
11 Dec 3.7 17:00:55 10° N 17:03:20 16° NE 17:05:44 10° ENE visible
11 Dec 2.9 18:38:27 10° NW 18:41:24 45° WNW 18:41:24 45° WNW visible
12 Dec 2.5 18:20:03 10° NW 18:23:51 55° SW 18:25:26 31° SSE visible
13 Dec 2.8 18:01:38 10° NW 18:05:24 50° SW 18:09:09 10° SSE visible
14 Dec 3.1 17:43:14 10° NW 17:46:57 46° SW 17:50:39 10° SSE visible
15 Dec 3.4 17:24:49 10° WNW 17:28:30 42° SW 17:32:09 10° SSE visible
